Flag for Belarus

Past Weather in Minsk, Belarus — Yesterday and Last 2 Weeks

Now
37 °F

Clear.


Feels Like: 33 °F
Forecast: 57 / 41 °F
Wind: 6 mph from Southeast

Location: Minsk
Current Time: Oct 21, 2020 at 3:07:11 am
Latest Report: Oct 21, 2020 at 2:30 am
Visibility: 4 mi
Pressure30.15 "Hg
Humidity: 93%
Dew Point: 36 °F
Location of MinskLocation

Past Weather in Minsk — Graph

°F

Minsk Temperature Yesterday

Maximum temperature yesterday: 46 °F (at 1:00 pm)
Minimum temperature yesterday: 34 °F (at 7:30 am)
Average temperature yesterday: 39 °F

High & Low Weather Summary for the Past Weeks

 TemperatureHumidityPressure
High66 °F (Oct 13, 4:00 pm)100% (Oct 6, 9:30 am)30.24 "Hg (Oct 6, 9:30 am)
Low34 °F (Oct 17, 6:30 am)53% (Oct 20, 3:00 pm)29.68 "Hg (Oct 18, 4:00 am)
Average50 °F93%29.95 "Hg
* Reported Oct 6 2:00 am — Oct 21 2:00 am, Minsk. Weather by CustomWeather, © 2020

Note: Actual official high and low records may vary slightly from our data, if they occured in-between our weather recording intervals... More about our weather records

Minsk Weather History for the Previous 24 Hours

Scroll right to see more
 ConditionsComfort  
Time TempWeatherWind HumidityBarometerVisibility
2:00 am
Wed, Oct 21
36 °FPassing clouds.3 mph100%30.18 "Hg5 mi
1:30 am36 °FClear.3 mph100%30.18 "Hg6 mi
1:00 am34 °FClear.3 mph100%30.21 "Hg4 mi
12:30 am36 °FClear.3 mph93%30.21 "Hg4 mi
12:00 am36 °FClear.3 mph100%30.21 "Hg5 mi
11:30 pm
Tue, Oct 20
37 °FPassing clouds.3 mph93%30.21 "HgN/A
11:00 pm37 °FClear.3 mph93%30.24 "Hg10 mi
10:30 pm37 °FClear.3 mph93%30.21 "Hg10 mi
10:00 pm37 °FClear.3 mph93%30.21 "Hg10 mi
9:30 pm39 °FClear.6 mph87%30.21 "Hg10 mi
9:00 pm37 °FClear.3 mph93%30.21 "Hg10 mi
8:30 pm37 °FClear.3 mph93%30.21 "Hg10 mi
8:00 pm39 °FClear.3 mph87%30.21 "Hg10 mi
7:30 pm36 °FClear.3 mph87%30.21 "Hg10 mi
7:00 pm36 °FClear.3 mph87%30.21 "Hg10 mi
6:30 pm37 °FSunny.3 mph81%30.21 "Hg10 mi
6:00 pm41 °FSunny.3 mph70%30.21 "Hg10 mi
5:30 pm41 °FSunny.3 mph76%30.21 "Hg10 mi
5:00 pm43 °FPassing clouds.8 mph66%30.21 "HgN/A
4:30 pm45 °FPassing clouds.10 mph61%30.21 "HgN/A
4:00 pm46 °FPartly sunny.13 mph53%30.21 "HgN/A
3:30 pm46 °FPartly sunny.10 mph57%30.21 "HgN/A
3:00 pm46 °FPartly sunny.10 mph53%30.21 "HgN/A
2:30 pm46 °FPartly sunny.10 mph57%30.18 "HgN/A
2:00 pm45 °FPartly sunny.17 mph57%30.18 "HgN/A
1:30 pm45 °FPartly sunny.15 mph61%30.18 "HgN/A
1:00 pm46 °FPartly sunny.15 mph62%30.18 "HgN/A
12:30 pm45 °FPartly sunny.15 mph66%30.15 "HgN/A
12:00 pm45 °FPartly sunny.15 mph66%30.15 "HgN/A
9:00 am37 °FScattered clouds.8 mph93%30.09 "HgN/A
8:30 am36 °FPassing clouds.6 mph93%30.09 "HgN/A
8:00 am36 °FPassing clouds.6 mph93%30.09 "HgN/A
7:30 am34 °FPassing clouds.6 mph100%30.09 "HgN/A
7:00 am36 °FPassing clouds.6 mph93%30.07 "HgN/A
6:30 am36 °FPassing clouds.6 mph93%30.09 "Hg6 mi
6:00 am36 °FClear.6 mph93%30.07 "Hg5 mi
5:30 am36 °FClear.6 mph100%30.07 "Hg10 mi
5:20 am36 °FPassing clouds.8 mph93%30.07 "HgN/A
5:00 am36 °FPassing clouds.8 mph100%30.07 "Hg6 mi
4:30 am36 °FPassing clouds.6 mph93%30.07 "Hg6 mi
4:21 am36 °FPassing clouds.6 mph93%30.07 "Hg5 mi
3:30 am36 °FClear.8 mph93%30.07 "Hg10 mi
3:00 am36 °FClear.6 mph100%30.04 "Hg6 mi
Weather by CustomWeather, © 2020

See weather overview